Wind_Speed
5 5 4 3 2 2 2 1 1 1 2 2 2 2 2 3 3 3 3 4 4 5 6 6 7 8 8 8 8 8 9 9 9 9 9 8 8 8 8 8 8 7 7
6 5 4 3 2 2 1 1 1 2 2 1 2 2 3 3 3 3 3 4 4 5 5 6 7 7 8 8 8 8 9 9 9 9 9 9 9 10 10 10 10 9 9
7 5 4 3 3 3 2 2 2 2 1 2 2 2 3 3 3 3 4 4 4 5 5 6 7 7 8 8 8 8 9 9 10 9 9 9 10 10 11 11 10 10 10
8 6 5 5 4 4 3 2 2 2 2 2 2 2 2 2 2 3 3 4 4 5 5 6 7 7 8 8 7 8 8 9 9 10 10 10 10 11 11 11 11 11 11
10 8 7 6 5 5 4 3 3 3 2 2 2 2 2 2 2 2 2 3 4 4 4 5 5 6 7 7 7 7 8 9 9 9 10 10 10 11 11 11 11 11 12
12 10 8 7 6 6 5 4 4 4 3 3 2 2 2 2 2 2 2 2 3 4 4 4 4 4 5 6 6 6 7 8 9 9 10 10 10 11 11 11 12 12 13
13 11 10 8 7 7 6 5 5 4 4 3 3 3 3 2 1 2 2 2 2 3 3 4 4 4 4 5 5 6 6 7 8 8 8 9 10 11 12 12 13 13 13
14 13 12 10 9 8 7 7 6 5 5 4 4 4 3 2 2 2 2 2 1 1 2 3 3 4 5 5 6 6 6 6 7 7 8 9 10 10 11 12 13 14 14
15 14 13 12 10 10 9 8 7 7 6 5 5 4 4 3 2 2 1 1 1 2 2 3 4 4 4 5 6 6 7 8 9 9 9 10 10 10 10 11 12 13 14
17 15 14 13 12 12 11 10 9 8 8 7 6 6 5 4 4 3 3 3 3 4 4 4 5 6 6 6 7 8 9 10 11 11 11 12 12 12 12 13 13 14 14
17 17 15 15 14 14 13 12 11 10 10 9 8 8 8 7 7 6 6 6 6 6 6 7 7 8 9 9 9 10 10 12 13 14 14 14 15 15 15 16 16 17 17
18 17 17 16 16 15 14 13 13 13 12 12 11 11 10 10 10 10 10 10 10 10 10 10 11 11 12 13 13 13 13 14 15 16 17 18 18 18 19 19 20 20 20
19 18 18 17 16 15 15 15 15 14 14 14 14 13 14 14 13 13 14 14 14 14 14 14 15 15 16 16 17 17 18 18 19 19 19 20 21 21 22 22 23 23 23
19 19 18 18 17 17 16 16 16 16 16 16 16 16 17 17 16 16 17 17 17 17 18 18 18 19 19 20 21 21 21 22 23 23 23 24 24 25 26 27 27 27 28
18 18 19 18 18 18 18 18 18 18 18 18 18 19 19 19 19 19 19 20 20 21 21 22 22 23 23 23 24 24 25 26 27 27 27 28 28 29 30 31 31 32 32
18 18 18 18 18 18 18 18 19 19 20 20 20 21 21 21 21 21 21 22 23 23 24 24 25 26 26 27 28 28 29 30 30 31 32 33 33 34 34 35 36 36 36
18 19 19 19 19 19 20 20 21 21 21 22 23 23 23 22 22 23 24 24 25 25 26 28 29 29 29 30 31 32 32 33 34 34 35 36 37 37 38 39 39 40 40
17 18 19 19 19 20 20 21 22 23 23 24 24 24 25 25 25 25 26 26 27 28 29 30 31 31 31 32 33 34 35 36 37 38 38 39 40 41 42 43 43 43 44
17 18 19 20 20 20 20 21 22 22 23 24 24 25 25 25 26 26 27 28 29 30 31 32 32 32 33 34 35 36 37 38 39 40 41 43 44 45 46 47 47 48 48
17 18 19 19 20 20 21 21 22 22 22 23 23 24 25 26 27 28 29 30 30 31 32 33 33 34 35 36 37 38 39 41 43 44 45 47 47 48 49 50 51 51 52
17 18 19 20 20 20 21 22 23 23 25 25 25 25 26 28 29 30 30 31 32 33 34 35 36 37 38 39 40 41 42 44 45 47 48 50 51 51 52 53 54 55 56
16 18 19 20 21 21 20 21 22 23 24 25 26 27 28 29 30 31 32 33 34 36 37 38 40 41 41 42 43 45 47 48 49 50 51 53 54 56 57 58 59 60 61
17 18 18 19 20 20 21 21 22 23 24 25 27 28 29 30 31 32 33 35 36 38 40 42 43 44 45 46 48 49 50 52 53 54 55 56 58 59 61 62 64 65 66
19 20 20 19 19 20 21 21 22 24 25 26 28 29 30 31 32 34 35 37 39 41 42 44 46 48 49 51 52 53 54 56 58 59 60 60 61 62 64 65 67 68 69
19 20 21 21 21 22 23 24 25 26 27 28 29 31 32 34 36 38 39 41 43 45 46 48 49 50 52 53 55 57 58 60 61 62 63 64 65 65 66 67 68 70 71
21 22 23 23 23 23 25 26 27 28 29 31 33 35 36 38 39 40 42 44 46 48 50 50 52 53 55 57 59 60 62 63 64 65 65 67 67 68 68 68 69 71 72
Wind_Direction
246 254 267 272 277 292 302 287 252 221 210 188 191 207 198 196 195 199 197 198 207 211 214 221 223 224 225 230 233 234 234 239 243 244 248 252 257 263 267 271 274 279 283
239 240 242 246 258 275 279 241 194 201 212 206 196 202 196 196 201 205 210 208 209 215 220 224 225 227 230 235 236 236 238 242 244 246 250 254 259 264 264 266 269 273 277
229 230 231 233 245 252 240 215 202 201 195 175 165 171 186 202 208 213 213 218 219 221 226 227 227 231 234 237 238 239 242 243 244 248 252 257 261 264 263 264 267 270 273
226 227 230 234 238 237 228 211 200 183 173 171 168 165 174 197 207 209 211 218 220 225 232 231 228 230 233 237 241 245 247 245 247 250 255 260 264 264 263 264 266 269 271
222 224 230 231 231 229 220 210 196 188 184 171 157 150 145 158 180 190 200 216 225 231 235 237 232 230 233 240 245 248 248 248 249 251 255 262 268 266 265 266 269 271 271
220 222 224 225 228 225 218 214 209 206 194 174 167 162 155 146 166 176 189 216 228 233 234 232 234 233 237 244 248 249 249 249 249 254 260 264 269 270 269 269 271 272 273
217 217 219 221 223 224 222 221 215 206 194 185 182 178 173 163 172 179 187 200 206 222 233 236 240 243 247 252 255 253 252 252 255 259 263 268 272 274 275 273 272 273 274
217 217 219 219 220 222 218 215 213 208 200 193 194 193 184 172 154 152 153 156 166 191 227 242 246 251 254 256 257 257 253 256 261 265 269 276 278 281 279 277 276 276 275
215 219 221 218 218 219 217 213 212 208 204 204 202 199 196 192 178 174 186 200 223 238 247 249 257 258 260 262 263 262 262 264 266 270 272 274 276 277 277 279 279 278 279
216 220 223 221 221 222 219 218 217 216 216 215 212 215 220 225 228 235 249 253 255 260 264 262 263 263 265 269 271 272 268 267 270 272 275 276 276 278 279 279 278 278 278
217 220 222 224 225 226 224 223 223 223 223 224 226 231 235 241 245 252 260 264 266 268 270 270 270 271 271 270 272 273 273 272 272 272 273 274 275 277 278 278 278 278 277
219 220 222 225 227 229 229 229 230 230 231 232 236 241 246 250 253 257 262 266 269 270 272 273 272 273 272 270 271 273 274 275 275 274 274 274 275 276 276 277 277 278 277
221 223 225 225 228 230 231 233 235 236 237 240 244 248 251 255 259 261 264 266 268 269 270 272 274 275 275 273 273 273 274 275 275 275 275 275 275 276 276 276 276 276 276
224 226 227 228 232 233 235 237 238 241 243 246 249 252 254 257 261 264 265 266 267 269 271 272 273 274 275 274 274 273 274 275 276 276 275 275 275 275 275 275 275 275 274
224 227 229 233 236 237 239 241 243 245 247 251 253 256 257 258 260 263 265 267 268 269 271 272 273 274 275 274 274 274 275 275 276 276 276 276 276 276 276 276 276 275 275
225 228 229 234 238 240 243 246 248 249 251 254 256 258 260 260 261 262 265 267 268 270 272 274 275 276 276 276 276 276 277 277 277 277 277 277 277 277 277 277 277 276 275
227 230 234 237 241 244 246 249 251 254 256 258 260 261 262 261 262 264 266 267 269 270 272 274 275 276 276 276 277 277 277 278 278 278 277 277 276 277 277 277 276 276 275
233 235 238 241 245 249 251 253 257 260 261 262 263 263 264 262 265 268 268 269 271 273 274 276 276 275 276 276 277 277 277 277 278 278 278 277 277 277 276 275 275 275 275
235 236 239 242 247 251 255 257 261 263 263 264 264 264 264 265 267 270 271 271 273 275 276 276 276 276 277 278 277 277 277 277 278 278 277 277 277 277 276 276 276 275 275
240 240 242 245 248 253 258 260 261 264 264 265 267 267 268 271 272 273 273 273 275 277 277 276 277 277 278 278 278 278 278 278 278 278 277 277 277 277 277 277 276 276 275
246 245 247 249 253 257 260 261 263 265 267 267 269 270 273 275 275 275 276 277 278 279 278 277 278 278 278 278 278 278 279 280 280 279 279 278 278 278 278 278 277 277 276
250 249 249 253 256 259 260 262 263 266 268 269 271 273 275 276 276 276 277 278 279 279 279 279 280 280 279 279 280 280 280 280 280 280 280 280 281 280 280 279 279 278 277
252 253 254 258 261 261 262 264 268 270 272 272 272 275 277 277 277 278 279 280 280 281 280 281 281 281 281 281 281 281 281 281 281 280 280 281 281 281 281 280 280 279 279
252 254 258 260 261 264 265 267 270 271 274 276 277 277 278 280 281 281 281 282 282 283 283 283 283 283 283 283 283 283 283 283 283 283 282 282 282 282 282 282 281 281 280
256 260 264 264 265 267 270 271 273 275 276 277 278 279 280 282 282 283 283 283 284 284 284 284 284 284 284 284 284 284 284 284 284 284 284 284 283 283 283 282 282 282 281
261 263 265 266 268 272 273 274 275 276 278 280 281 281 282 283 283 284 285 285 286 286 286 286 286 286 285 286 286 286 286 286 285 285 285 285 284 284 283 283 283 283 282
Height
5883 5884 5884 5885 5886 5886 5886 5886 5887 5887 5887 5887 5888 5888 5888 5889 5889 5890 5890 5891 5892 5893 5893 5894 5895 5896 5897 5897 5898 5899 5900 5901 5902 5902 5903 5904 5904 5905 5906 5906 5906 5907 5907
5882 5883 5883 5884 5885 5886 5886 5886 5886 5886 5886 5887 5887 5888 5888 5889 5889 5890 5890 5891 5891 5892 5893 5894 5894 5895 5896 5896 5897 5898 5899 5899 5900 5901 5902 5902 5903 5903 5904 5904 5905 5905 5905
5880 5881 5882 5883 5884 5885 5885 5886 5886 5886 5886 5887 5887 5887 5888 5888 5889 5889 5890 5890 5891 5892 5893 5893 5894 5894 5895 5895 5896 5897 5897 5898 5899 5899 5900 5900 5901 5901 5902 5902 5903 5903 5903
5879 5880 5881 5883 5883 5884 5885 5886 5886 5886 5887 5887 5887 5887 5887 5888 5888 5889 5890 5890 5891 5892 5892 5892 5893 5893 5894 5894 5895 5895 5896 5896 5897 5898 5898 5899 5899 5899 5899 5900 5900 5901 5901
5877 5879 5880 5882 5883 5884 5884 5885 5886 5886 5886 5887 5887 5887 5887 5888 5888 5889 5890 5890 5891 5891 5892 5892 5892 5892 5893 5893 5893 5894 5894 5895 5895 5896 5896 5896 5897 5897 5897 5898 5898 5898 5898
5875 5877 5879 5881 5882 5883 5884 5885 5885 5886 5886 5887 5887 5887 5888 5888 5888 5889 5889 5890 5890 5891 5891 5891 5892 5892 5892 5892 5892 5893 5893 5893 5893 5894 5894 5894 5895 5895 5895 5895 5896 5896 5896
5874 5876 5878 5879 5881 5882 5883 5884 5885 5885 5886 5886 5887 5887 5888 5888 5888 5889 5889 5889 5890 5890 5890 5891 5891 5891 5891 5891 5892 5892 5892 5892 5892 5892 5892 5892 5892 5892 5892 5892 5893 5893 5893
5872 5874 5876 5878 5879 5881 5882 5883 5884 5885 5885 5886 5887 5887 5888 5889 5888 5889 5889 5889 5889 5889 5890 5890 5890 5891 5891 5891 5891 5891 5891 5891 5891 5891 5891 5891 5890 5890 5890 5890 5890 5890 5889
5870 5872 5874 5876 5878 5879 5880 5882 5883 5884 5885 5885 5886 5887 5888 5888 5888 5889 5889 5889 5889 5889 5889 5889 5890 5890 5890 5890 5890 5890 5889 5889 5889 5889 5889 5889 5888 5888 5888 5887 5887 5887 5886
5868 5870 5872 5874 5876 5878 5879 5880 5882 5883 5884 5885 5886 5886 5887 5888 5888 5888 5889 5889 5889 5889 5889 5889 5889 5889 5888 5888 5888 5888 5888 5888 5887 5887 5887 5886 5886 5886 5885 5885 5884 5884 5883
5865 5867 5870 5872 5874 5876 5877 5879 5880 5882 5883 5884 5884 5885 5886 5887 5887 5888 5888 5888 5888 5888 5887 5887 5887 5887 5887 5886 5886 5886 5885 5885 5885 5884 5884 5883 5883 5883 5882 5882 5881 5880 5880
5863 5865 5867 5870 5872 5874 5875 5877 5878 5880 5881 5882 5883 5884 5885 5885 5885 5886 5886 5886 5886 5886 5885 5885 5885 5884 5884 5884 5883 5883 5882 5882 5881 5881 5880 5880 5879 5879 5878 5878 5877 5876 5875
5860 5863 5865 5867 5869 5871 5873 5874 5876 5877 5878 5880 5881 5881 5882 5883 5883 5883 5883 5883 5883 5883 5882 5882 5882 5881 5881 5880 5880 5879 5879 5878 5877 5877 5876 5875 5875 5874 5873 5873 5872 5871 5870
5857 5860 5862 5864 5866 5868 5870 5871 5873 5874 5876 5877 5878 5878 5879 5879 5879 5879 5879 5879 5879 5879 5878 5878 5877 5877 5876 5876 5875 5874 5874 5873 5872 5872 5871 5870 5869 5868 5868 5867 5866 5865 5864
5854 5857 5859 5861 5863 5865 5867 5868 5870 5871 5872 5873 5874 5874 5875 5875 5875 5875 5875 5875 5875 5875 5874 5873 5873 5872 5871 5871 5870 5869 5868 5867 5866 5865 5864 5863 5862 5861 5860 5859 5858 5857 5856
5851 5853 5855 5857 5860 5862 5863 5864 5866 5867 5868 5869 5869 5870 5870 5870 5870 5870 5870 5870 5870 5870 5869 5868 5867 5866 5866 5865 5864 5863 5861 5860 5859 5858 5857 5856 5854 5853 5852 5851 5849 5848 5847
5847 5849 5851 5853 5855 5857 5859 5860 5861 5862 5863 5864 5864 5864 5865 5865 5865 5865 5865 5864 5864 5863 5863 5862 5861 5860 5859 5858 5856 5855 5854 5852 5851 5850 5848 5847 5845 5844 5842 5841 5840 5838 5837
5844 5846 5848 5849 5851 5852 5854 5855 5856 5857 5857 5858 5858 5858 5859 5859 5859 5859 5858 5858 5857 5857 5856 5855 5853 5852 5851 5850 5848 5847 5845 5843 5842 5840 5838 5837 5835 5833 5831 5830 5828 5827 5826
5840 5842 5844 5845 5846 5848 5849 5850 5850 5851 5851 5851 5852 5852 5852 5852 5852 5852 5851 5851 5850 5849 5848 5847 5845 5844 5843 5841 5839 5838 5836 5833 5831 5830 5828 5826 5824 5822 5820 5818 5816 5815 5813
5836 5838 5839 5841 5842 5843 5844 5844 5845 5845 5845 5845 5845 5845 5845 5845 5844 5844 5843 5842 5841 5841 5839 5838 5836 5835 5833 5831 5830 5828 5825 5823 5820 5818 5816 5814 5811 5809 5807 5805 5803 5801 5799
5832 5834 5835 5836 5837 5838 5838 5839 5839 5839 5839 5839 5839 5838 5838 5837 5837 5836 5835 5834 5833 5831 5830 5828 5826 5825 5823 5821 5819 5816 5814 5811 5808 5805 5803 5800 5797 5795 5793 5790 5788 5785 5783
5828 5829 5830 5831 5832 5833 5833 5833 5833 5833 5833 5833 5832 5832 5831 5830 5829 5828 5827 5825 5824 5822 5820 5818 5816 5814 5812 5809 5807 5804 5802 5799 5796 5793 5790 5786 5783 5780 5777 5774 5771 5768 5766
5824 5825 5826 5827 5827 5827 5828 5828 5828 5827 5827 5826 5826 5825 5824 5822 5821 5819 5818 5816 5814 5812 5810 5808 5805 5802 5800 5797 5794 5791 5787 5784 5781 5778 5775 5772 5768 5764 5759 5755 5752 5749 5746
5820 5821 5821 5821 5822 5822 5822 5822 5822 5821 5820 5820 5819 5817 5816 5814 5813 5811 5809 5806 5804 5802 5799 5796 5793 5790 5787 5783 5780 5777 5773 5769 5765 5762 5758 5755 5751 5747 5742 5737 5732 5728 5725
5815 5815 5816 5816 5816 5816 5816 5816 5816 5815 5813 5812 5811 5809 5807 5805 5803 5801 5799 5796 5793 5790 5787 5783 5780 5776 5772 5769 5765 5761 5757 5753 5749 5744 5740 5736 5732 5728 5724 5718 5712 5707 5703
5809 5809 5809 5810 5810 5810 5810 5809 5808 5807 5805 5804 5802 5800 5798 5796 5793 5790 5787 5784 5781 5778 5774 5770 5766 5762 5758 5753 5749 5744 5740 5735 5730 5726 5721 5717 5712 5707 5704 5699 5691 5685 5680